Miscellaneous Local Product
Issued by NWS North Platte, NE

Home | Current Version | Previous Version | Text Only | Print | Product List | Glossary On
Versions: 1 2 3 4 5 6 7 8 9 10 11 12 13 14 15 16 17 18 19 20 21 22 23 24 25 26 27 28 29 30 31 32 33 34 35 36 37 38 39 40 41 42 43 44 45 46 47 48 49 50
000
AXUS43 KLBF 270210
MISLBF


WESTERN AND NORTH CENTRAL NEBRASKA HOURLY WEATHER ROUNDUP
NATIONAL WEATHER SERVICE NORTH PLATTE NE
900 PM CDT FRI AUG 26 2016

NOTE: "FAIR" INDICATES FEW OR NO CLOUDS BELOW 12,000 FEET WITH NO
SIGNIFICANT WEATHER AND/OR OBSTRUCTIONS TO VISIBILITY.

NOTE: STATIONS NOT REPORTING VARIABLES SUCH AS SKY/WEATHER OR
PRESSURE ARE PROVIDED BY RAWS AND APRS NETWORKS AND ARE NOT UNDER
NATIONAL WEATHER SERVICE QUALITY CONTROL.

...OBSERVATIONS IN AND NEAR THE EASTERN PANHANDLE OF NEBRASKA...

CITY           SKY/WX    TMP DP  RH WIND       PRES   REMARKS
PINE RIDGE     CLEAR     63  54  72 SE8       30.01S
CHADRON        CLEAR     64  52  64 S8        29.99S
ALLIANCE       PTCLDY    58  54  86 SE7       30.03F
SIDNEY         CLOUDY    57  53  86 SE8       30.08R
CRESCENT LAKE    N/A     58  54  88 SE6         N/A
$$

...OBSERVATIONS IN NORTHERN NEBRASKA AND FAR SOUTHERN SOUTH DAKOTA...

CITY           SKY/WX    TMP DP  RH WIND       PRES   REMARKS
WINNER         FAIR      62  58  86 SE8       30.02S
VALENTINE      CLOUDY    60  57  89 E3        30.04S
THEDFORD       CLOUDY    61  59  94 CALM      30.07R
AINSWORTH      CLOUDY    61  55  78 SE6       30.04S
O`NEILL        MOCLDY    66  57  72 E6        30.06R
ORD            CLOUDY    65  57  75 SE10      30.02S
BROKEN BOW     CLOUDY    62  59  90 SE8       30.03S
VALENTINE NWR    N/A     60  58  92 CALM        N/A
BUTTE            N/A     66  56  71 SE7         N/A
HALSEY           N/A     61  58  90 CALM        N/A
EWING            N/A     64  59  84 CALM        N/A
$$

...OBSERVATIONS IN SOUTHWEST NEBRASKA AND FAR NORTHEAST COLORADO...

CITY           SKY/WX    TMP DP  RH WIND       PRES   REMARKS
HOLYOKE        FAIR      59  55  88 S7        30.05F
IMPERIAL       CLOUDY    59  57  93 CALM      30.06S
OGALLALA       CLOUDY    59  56  89 E5        30.04F
NORTH PLATTE   CLOUDY    63  59  87 CALM      30.04R
MCCOOK         LGT RAIN  60  57  89 E20       30.02F
LEXINGTON      CLOUDY    66  62  87 S8        30.03F
STAPLETON        N/A     59  57  92 CALM        N/A
GOTHENBURG       N/A     64  59  84 S6          N/A
CALLAWAY         N/A     62  59  89 SE7         N/A
$$

...OBSERVATIONS IN CENTRAL LINCOLN COUNTY AREA...

CITY           SKY/WX    TMP DP  RH WIND       PRES   REMARKS
N.P. AIRPORT   CLOUDY    63  59  87 CALM      30.04R
N.P. DOWNTOWN    N/A     61  59  94 CALM        N/A
N.P. SOUTHEAST   N/A     61  59  92 CALM        N/A
N.P. HILLCREST   N/A     61  58  91 NE3         N/A
$$

...SOME OBSERVATIONS FROM AROUND THE REGION...

CITY           SKY/WX    TMP DP  RH WIND       PRES   REMARKS
DENVER         MOCLDY    65  48  54 E20       30.09R
LARAMIE        CLOUDY    61  32  33 SW20G25   30.17R
CHEYENNE       CLOUDY    56  51  84 CALM      30.13R
SCOTTSBLUFF    CLOUDY    60  55  83 SE6       30.03S
RAPID CITY     PTCLDY    58  55  90 NW6       30.05R
BISMARCK       CLOUDY    61  55  81 S15       30.00S
PIERRE         CLEAR     59  54  83 E8        30.02S
SIOUX FALLS    CLOUDY    67  59  75 E10       30.06F
OMAHA          CLOUDY    68  62  81 NE9       30.06R
GRAND ISLAND   CLOUDY    65  63  93 SE7       30.07R
KANSAS CITY    LGT RAIN  70  69  97 E7        30.01S
WICHITA        PTCLDY    77  67  71 SE6       30.00R
OKLAHOMA CITY  CLOUDY    73  69  87 E7        30.03S
DALLAS         CLOUDY    79  69  71 E14       30.01R
AMARILLO       CLEAR     74  60  61 S14       30.07R
DODGE CITY     CLEAR     68  64  87 E6        30.02S
HAYS           CLEAR     72  59  64 E7        30.03R
GOODLAND       CLOUDY    59  50  72 CALM      30.07S
$$




USA.gov is the U.S. government's official web portal to all federal, state and local government web resources and services.